Theta_e
289 289 288 287 287 287 287 286 286 286 286 285 285 285 284 284 285 285 285 285 285 284 284 284 284 284 285 285 285 285 285 284 284 285 284 285 284 284 284 284 284 284
288 287 287 287 286 286 286 286 285 285 284 284 285 284 284 284 284 284 284 284 284 283 283 283 283 283 283 283 283 283 283 283 283 284 283 283 283 284 283 283 284 284
287 287 287 286 285 285 285 285 285 285 284 284 284 284 284 284 283 283 283 283 283 283 283 283 283 283 282 283 283 283 282 282 282 283 282 283 283 282 282 283 283 283
286 286 286 285 285 285 285 285 285 284 284 284 283 283 283 283 283 283 283 282 282 282 282 282 282 282 282 282 282 282 282 282 282 282 282 282 282 282 282 282 282 282
285 285 285 285 285 285 285 284 284 284 283 283 283 283 282 283 282 282 282 282 282 281 281 281 281 281 281 281 281 281 281 281 281 281 281 281 281 281 281 281 281 280
285 285 285 284 284 284 284 283 283 283 283 282 282 282 282 282 281 281 281 281 281 280 280 280 280 280 280 280 280 280 280 280 280 279 279 279 280 281 281 280 280 280
284 284 284 284 283 283 283 283 282 282 282 282 282 281 281 281 280 280 280 280 279 279 279 279 279 279 279 279 279 278 278 278 278 278 278 278 279 278 279 279 279 279
284 283 283 283 283 282 282 282 281 281 281 280 280 280 280 279 279 279 279 279 278 278 278 278 278 278 277 277 277 277 277 278 277 277 277 277 277 277 278 278 278 278
283 282 282 282 282 281 280 280 280 279 279 279 279 279 279 278 278 278 277 277 277 277 277 277 277 276 276 276 276 276 276 276 277 276 276 276 276 277 277 277 277 277
282 282 282 282 281 280 279 279 279 278 278 278 278 278 277 277 277 276 276 276 276 276 276 276 275 275 275 276 275 275 275 275 276 276 276 276 276 276 276 276 276 275
282 282 281 281 280 280 278 278 278 278 277 276 277 277 276 276 276 276 275 276 275 275 275 275 275 274 274 275 275 275 275 275 275 276 276 276 276 276 276 276 275 275
281 281 281 280 279 278 278 277 277 276 276 276 276 275 275 275 275 275 275 274 274 274 274 274 274 274 274 274 274 274 275 275 275 276 276 276 276 276 276 276 275 275
281 281 280 279 279 278 277 276 276 275 275 275 275 274 274 274 274 273 274 273 273 273 273 273 273 273 273 273 273 274 275 275 275 275 275 275 275 275 276 276 275 275
281 281 280 279 278 277 276 275 275 274 274 274 273 273 273 273 273 272 273 273 272 272 272 272 272 272 273 273 273 274 275 275 275 274 275 275 275 275 275 275 275 275
280 280 279 278 276 276 275 274 274 273 273 273 272 272 272 272 271 271 271 272 272 271 271 272 271 272 272 272 273 274 275 274 275 274 274 274 274 275 275 275 275 275
279 278 277 276 275 274 274 273 273 272 272 272 271 271 271 271 270 271 271 271 271 271 271 271 271 271 270 271 274 274 274 275 274 274 274 274 274 274 274 275 275 275
278 277 277 275 275 274 273 272 272 271 271 270 270 269 269 269 269 270 270 270 270 270 270 270 270 270 270 273 274 275 275 274 274 274 274 274 274 274 273 274 274 273
278 276 275 274 273 272 271 271 270 269 269 269 269 269 269 269 269 269 269 269 269 269 269 270 270 270 271 272 273 275 275 275 274 274 273 273 274 273 273 272 272 272
277 275 274 273 272 271 270 269 268 268 268 268 268 269 268 268 269 268 268 269 268 268 268 269 269 269 270 272 273 274 275 275 274 274 273 273 273 272 272 271 271 271
276 274 273 272 271 270 269 268 268 268 269 269 268 268 268 268 267 267 267 267 267 267 267 268 268 268 270 272 273 274 275 275 274 274 273 272 272 272 271 271 271 271
274 273 272 271 269 269 268 268 268 268 267 268 268 268 268 267 267 266 266 265 266 266 266 266 267 268 270 271 272 273 275 275 273 272 271 271 271 272 271 271 271 271
274 273 271 270 269 268 268 268 268 267 267 268 267 267 267 266 266 266 265 265 265 264 264 265 267 268 269 270 272 273 274 273 272 271 271 271 270 271 271 272 272 272
273 272 271 270 269 268 267 268 268 267 267 267 266 267 267 266 265 265 265 264 264 263 263 264 265 266 268 270 272 273 273 271 271 271 270 270 270 271 271 272 272 272
273 272 270 269 268 267 267 268 268 268 266 266 266 266 266 265 264 264 264 263 263 262 263 262 263 266 268 270 271 272 272 271 271 270 270 270 270 271 272 272 273 274
272 271 270 269 268 268 267 267 266 266 266 265 265 265 264 264 264 264 263 263 263 262 263 263 263 264 267 269 270 271 272 271 271 270 270 270 270 271 272 272 273 274
271 269 269 268 267 267 266 266 266 265 264 264 264 265 264 264 263 263 261 262 262 262 262 263 263 263 265 268 270 271 273 272 271 270 270 270 271 271 272 272 273 273
Wind_Speed
7 7 7 7 7 6 6 6 5 5 5 4 5 4 4 4 4 4 4 4 5 5 5 5 5 5 4 4 4 3 3 4 3 4 4 4 3 4 4 5 5 4
8 8 7 7 7 6 6 6 5 5 5 4 4 4 3 3 2 2 2 2 3 4 4 4 4 4 4 3 3 3 3 3 3 2 3 3 3 3 4 5 4 4
8 7 7 7 7 7 6 5 5 4 5 4 3 3 3 2 2 2 3 3 3 4 4 4 4 4 4 4 3 2 3 3 3 3 3 3 3 3 4 4 4 4
7 7 7 7 7 6 5 5 5 4 4 4 4 3 2 1 2 2 2 3 3 3 3 3 3 3 3 3 3 2 2 2 2 3 3 3 3 3 4 4 4 4
7 6 6 6 5 5 5 5 5 4 4 3 3 2 2 2 2 2 2 2 2 2 2 2 2 2 3 3 3 3 3 2 3 4 4 4 3 4 4 4 5 5
6 6 6 6 5 5 5 5 5 4 4 3 3 2 2 2 2 2 2 2 2 2 2 2 3 3 3 4 4 4 4 4 4 5 5 5 4 4 3 4 5 6
7 6 6 5 6 5 5 5 5 4 3 3 2 2 1 1 2 1 2 2 2 2 3 3 4 5 4 4 4 4 4 4 5 5 5 4 4 5 4 5 5 6
8 6 6 5 6 5 5 5 4 3 3 2 3 2 1 1 1 1 2 3 2 3 4 4 4 4 4 4 4 4 4 3 4 5 5 5 4 5 5 5 5 6
7 6 6 6 6 5 5 4 3 3 2 2 2 2 2 1 2 2 2 3 2 3 3 3 3 3 3 3 3 4 4 4 4 4 5 5 5 6 6 6 6 6
7 7 7 6 6 5 5 4 3 3 2 2 2 2 2 2 2 2 2 2 2 2 2 3 3 3 3 3 3 4 4 5 4 4 4 5 5 6 6 6 7 7
8 7 7 6 6 5 5 5 4 3 2 2 2 2 2 1 1 1 1 1 1 2 3 3 3 3 3 3 3 3 4 4 5 5 5 5 5 5 6 6 7 7
8 7 7 7 6 5 6 4 4 3 3 2 2 2 1 1 1 1 1 2 1 2 3 3 3 3 3 4 4 4 4 5 4 5 5 5 6 5 6 6 6 7
8 7 7 7 6 5 5 4 3 3 3 3 2 2 1 1 0 0 1 1 2 2 3 3 3 3 3 4 4 4 4 5 5 5 6 5 5 6 6 6 7 7
7 7 7 6 5 5 4 4 3 3 3 3 2 2 2 1 0 0 1 1 1 2 3 3 3 3 3 3 4 4 5 5 5 6 6 6 6 6 6 7 7 8
7 6 6 6 6 5 5 4 4 3 3 3 2 2 1 1 0 1 1 1 2 2 3 3 3 3 2 3 5 6 6 6 6 7 7 8 7 7 7 7 7 7
7 6 7 6 6 5 5 4 4 4 3 3 3 2 2 1 0 1 1 2 2 3 3 3 2 2 3 7 8 6 7 6 7 7 7 8 9 9 8 8 8 8
7 7 7 7 6 5 4 4 4 3 3 3 3 2 2 1 1 2 2 1 2 3 4 3 3 2 6 9 9 10 8 7 7 7 7 8 8 9 9 9 8 8
7 7 7 6 6 5 5 4 4 4 3 3 3 3 2 2 2 2 2 2 2 3 4 4 4 4 8 9 10 10 10 8 7 7 7 7 8 8 8 8 9 9
7 7 6 6 5 5 5 4 4 4 4 4 4 3 2 3 3 2 3 2 3 3 4 4 4 5 8 10 10 11 11 10 7 7 7 7 8 8 8 8 8 9
8 6 6 6 5 5 5 5 4 4 4 3 3 3 3 3 3 3 3 3 3 3 4 5 5 6 9 10 11 11 11 10 7 8 7 7 8 8 8 8 9 10
8 7 6 6 5 5 5 5 5 4 4 4 4 4 4 4 3 3 3 3 3 3 4 5 5 7 9 11 11 11 11 10 6 6 6 7 7 8 9 9 10 10
8 7 6 6 6 6 5 5 5 5 5 4 3 3 3 3 2 3 3 4 3 4 4 6 5 7 10 11 11 11 11 6 5 6 6 7 7 8 9 9 10 10
9 8 7 7 6 6 6 6 6 5 5 4 4 4 4 4 3 3 3 3 4 4 5 6 6 7 10 11 11 11 8 5 6 6 6 7 8 8 9 9 10 11
9 8 8 7 7 7 7 6 5 4 5 5 4 4 4 4 3 3 4 4 5 5 5 5 6 8 11 12 11 10 8 6 5 6 7 7 8 9 8 10 12 18
7 8 8 7 7 7 6 6 6 5 4 4 3 3 3 3 3 3 3 4 4 5 7 7 7 8 11 11 11 10 8 5 5 6 7 7 8 9 10 10 11 13
7 8 8 9 8 6 5 5 5 4 5 4 4 3 3 3 3 3 3 4 4 5 5 5 6 6 8 11 11 10 10 6 6 6 7 9 9 10 10 9 9 9
Wind_Direction
104 106 104 100 95 95 96 96 91 90 82 78 76 69 62 57 41 42 42 43 39 41 39 36 34 29 19 23 12 13 28 20 17 14 358 359 354 357 345 348 340 339
101 99 101 103 103 100 97 97 98 94 90 84 86 88 82 77 63 52 45 44 50 44 38 35 30 25 16 14 4 8 17 15 10 7 342 349 346 340 339 334 330 332
110 111 110 108 109 111 109 107 105 97 92 91 89 80 83 70 55 50 38 27 32 32 28 25 19 18 10 2 347 356 7 0 3 350 333 336 342 339 335 323 327 322
115 112 112 116 119 122 118 114 109 104 106 95 78 79 82 65 58 47 44 34 33 32 26 18 15 8 360 351 338 348 346 344 3 339 329 329 328 331 326 324 317 316
125 126 126 122 118 114 113 109 103 99 98 97 99 82 70 64 53 47 44 33 41 22 21 10 6 1 349 345 339 352 349 353 3 349 340 336 340 342 328 328 323 319
137 133 127 123 123 125 116 108 105 105 102 97 87 80 73 63 58 49 40 36 27 28 8 7 7 3 357 354 350 5 355 356 353 348 343 337 341 342 334 327 324 325
143 137 131 125 123 120 112 105 102 95 89 94 99 83 74 74 68 52 38 30 24 18 13 5 6 2 1 356 356 357 351 347 342 341 338 335 334 330 333 326 324 319
143 137 134 129 129 122 108 105 99 98 107 128 121 112 103 83 71 59 31 20 20 12 7 6 358 356 356 351 350 343 339 340 330 332 329 329 328 324 334 328 322 319
144 139 139 142 130 115 106 108 116 129 146 151 140 130 114 74 39 40 23 18 14 6 356 353 350 347 345 342 336 334 325 327 326 325 326 328 329 328 331 328 323 324
145 143 147 141 122 115 128 143 157 157 154 145 131 105 94 70 54 24 20 7 358 353 346 341 343 340 331 331 327 326 324 322 324 323 322 321 322 322 325 324 321 320
149 153 147 136 128 140 156 161 170 160 144 128 113 100 72 67 45 36 6 358 352 344 331 335 337 330 328 323 325 321 318 318 317 321 318 316 316 317 318 316 316 314
158 156 147 140 146 159 169 171 163 151 135 113 96 99 91 85 45 11 15 346 339 326 315 320 323 321 317 315 316 320 314 315 314 314 317 316 315 312 312 312 309 310
165 158 147 151 164 170 168 167 152 134 128 118 113 112 112 116 56 37 325 337 313 315 308 315 309 307 305 313 315 316 317 317 318 312 309 308 302 306 304 302 302 302
163 150 150 159 163 162 165 157 145 139 131 128 132 148 133 126 166 315 275 300 299 295 298 300 299 298 308 312 315 317 315 315 310 307 306 301 299 300 296 295 296 295
151 146 150 156 161 163 165 159 149 142 142 140 145 142 127 143 240 239 274 271 275 280 285 292 286 293 318 327 323 315 311 305 302 300 300 302 300 299 295 295 293 292
153 150 161 162 166 172 168 155 152 155 156 152 150 138 139 142 212 252 258 271 282 282 285 276 277 274 291 296 300 302 304 300 300 296 296 296 298 299 298 296 296 294
156 163 162 170 172 169 159 155 159 163 160 152 149 146 167 176 218 226 239 258 261 279 281 275 266 264 286 299 302 301 300 296 293 293 290 291 290 294 297 304 303 302
166 161 166 168 166 167 160 157 155 165 168 160 157 165 180 178 219 222 248 244 254 264 270 268 275 275 293 301 301 299 299 297 291 289 287 286 290 292 297 304 303 303
165 165 166 166 172 162 155 151 162 176 173 167 174 167 177 195 204 221 232 238 250 260 272 273 271 281 293 299 299 299 299 297 289 284 284 284 289 292 294 297 301 302
167 162 167 169 163 159 157 164 173 191 178 173 162 178 189 197 205 220 230 240 250 264 272 273 275 279 292 296 298 297 296 296 288 287 284 285 285 287 289 291 293 299
168 171 170 162 161 162 166 175 184 185 178 183 180 186 184 196 200 210 226 243 251 257 271 276 269 275 289 295 294 295 296 300 292 286 284 281 281 281 285 287 289 289
170 171 167 164 163 168 172 185 190 191 189 181 177 183 185 190 208 210 230 239 250 254 262 269 268 275 289 290 292 295 301 300 287 282 280 279 284 279 281 284 288 288
175 169 168 166 167 169 182 190 187 190 191 177 179 188 185 193 199 211 224 238 245 246 254 267 274 277 283 289 294 297 302 290 285 278 277 278 279 280 281 280 283 282
177 168 163 168 168 183 183 189 188 190 184 186 185 179 190 190 203 214 226 230 238 245 248 263 272 277 284 292 294 293 293 289 282 277 278 279 282 277 278 279 273 274
167 167 170 165 174 184 175 182 184 190 178 175 186 177 186 191 204 221 229 246 238 246 258 261 267 274 283 289 290 288 289 280 277 280 279 280 284 282 275 270 276 274
169 166 170 168 173 170 171 183 178 174 181 183 177 183 180 189 206 218 228 254 259 252 251 252 259 266 272 284 286 287 284 281 279 276 278 279 280 279 274 270 269 281